Location: Bletchingley
(51.2333°N, 0.1000°W)
Time: 12:27:56
(UTC+00:00)

Cosmos 1674 - Pass Details

Date: 18 September 2020
Orbit: 494 x 518 km, 82.5° (Epoch: 25 October)

Event Time Altitude Azimuth Distance (km) Brightness Sun altitude
Rises 20:36:53 0° 343° (NNW) 2,655 7.1 -22.8°
Reaches altitude 10° 20:39:07 10° 335° (NNW) 1,763 6.2 -23.1°
Maximum altitude 20:42:42 37° 267° (W) 823 4.0 -23.6°
Enters shadow 20:43:55 29° 227° (SW) 977 4.1 -23.7°
